Regional Weather Roundup
Issued by NWS Jackson, KY

Home | Current Version | Previous Version | Graphics & Text | Print | Product List | Glossary On
Versions: 1 2 3 4 5 6 7 8 9 10 11 12 13 14 15 16 17 18 19 20 21 22 23 24 25 26 27 28 29 30 31 32 33 34 35 36 37 38 39 40 41 42 43 44 45 46 47 48 49 50
000
ASUS43 KJKL 011010
RWRJKL

EAST KENTUCKY HOURLY WEATHER ROUNDUP
NATIONAL WEATHER SERVICE JACKSON KY
500 AM EST WED MAR 01 2017

NOTE: "FAIR" INDICATES FEW OR NO CLOUDS BELOW 12,000 FEET WITH
NO SIGNIFICANT WEATHER AND/OR OBSTRUCTIONS TO VISIBILITY.

* THESE REPORTS ARE NOT UNDER NWS QUALITY CONTROL AND MAY NOT
  REPORT WEATHER SUCH AS PRECIPITATION AND FOG.

KYZ079-080-083-085-087-088-110-112-115-119-120-011100
...EASTERN KENTUCKY...

CITY           SKY/WX    TMP DP  RH WIND       PRES   REMARKS
JACKSON        CLOUDY    65  56  72 SW8G17    29.78S
LONDON         CLOUDY    66  56  70 SW17G28   29.82F
SOMERSET*      CLOUDY    64  55  72 S10       29.81F
MONTICELLO*    CLOUDY    69  59  70 SW30G38   29.80F
WILLIAMSBURG*  PTSUNNY   66  59  77 S13G30    29.84F
MIDDLESBORO*   CLOUDY    64  59  83 SW15G29   29.88F
HARLAN APT*    CLOUDY    64  55  72 SW13G24   29.87F
PIKE CO APT*   MOCLDY    66  57  73 S16G25    29.80S
BIG SANDY APT* PTSUNNY   67  57  71 SW12G23   29.78S
MOREHEAD APT*  CLOUDY    66  57  72 S17G31    29.69F
ASHLAND*       CLOUDY    64  61  88 S12G23    29.68F
$$

KYZ035-036-041-042-044-050-067-078-099-011100
...CENTRAL KENTUCKY...

CITY           SKY/WX    TMP DP  RH WIND       PRES   REMARKS
MT STERLING*   CLOUDY    66  59  77 W17G38    29.72R
FLEMING/MASON* HVY RAIN  59  59  99 SW15G33   29.67F
DANVILLE*      CLOUDY    64  59  82 SW22G32   29.73S
LEXINGTON      CLOUDY    67  59  75 SW25G35   29.68F
FRANKFORT      HVY RAIN  64  57  78 W13G25    29.65F
LOUISVILLE     CLOUDY    67  61  81 SW18G30   29.61F
LEBANON*         N/A     68  61  77 S25G35    29.70F
GLASGOW*       CLOUDY    68  60  75 S18G30    29.74F
BOWLING GREEN  CLOUDY    71  61  70 S20G29    29.72F
$$

KYZ091>093-OHZ055-061-077-WVZ005-015-034-035-042-011100
...SOUTHERN OHIO/WEST VIRGINIA...

CITY           SKY/WX    TMP DP  RH WIND       PRES   REMARKS
COVINGTON      CLOUDY    62  60  93 S15       29.59F
COLUMBUS       CLOUDY    60  55  83 S14G24    29.57F
DAYTON         CLOUDY    60  55  83 S17G29    29.55F
WILMINGTON     CLOUDY    58  57  97 S13       29.59F
HUNTINGTON     CLOUDY    63  57  81 S12       29.71F
CHARLESTON     MOCLDY    66  55  67 S12       29.73F THUNDER
PINEVILLE*     CLOUDY    61  54  76 MISG      29.91F
BECKLEY        CLOUDY    60  52  74 SW15G25   29.87F
BLUEFIELD      CLOUDY    58  50  75 S7        29.93F
LOGAN CO APT*  PTSUNNY   64  55  72 S10G26    29.79F
$$

VAZ002-007-008-TNZ017-027-036-066-071-011100
...SOUTHWEST VIRGINIA/EAST TENNESSEE...

CITY           SKY/WX    TMP DP  RH WIND       PRES   REMARKS
WISE*          CLOUDY    61  54  77 SW16G31   29.92F
JONESVILLE*      N/A     55  55 100 CALM      29.93F
ABINGDON*      CLOUDY    57  56  95 CALM      29.94F
BRISTOL        MOCLDY    52  52 100 CALM      29.92F FOG
MORRISTOWN*    CLOUDY    54  54 100 N3        29.91F FOG
SEVIERVILLE*   SUNNY     57  52  82 VRB3      29.90F
KNOXVILLE      CLOUDY    66  57  72 SW20G25   29.92F
LAFOLLETTE*    PTSUNNY   68  57  68 SW26G36   29.89F
OAK RIDGE      CLOUDY    65  59  81 SW14G22   29.92F
CROSSVILLE     MOCLDY    62  57  83 SW7G21    29.92F
NASHVILLE      CLOUDY    69  61  75 S16G30    29.79F
$$

...KEY TO REMARKS...
VSB - VISIBILITY IN MILES
WCI - WIND CHILL INDEX
HX  - HEAT INDEX

$$



USA.gov is the U.S. government's official web portal to all federal, state and local government web resources and services.